DW3049 Weather Reports


Display with metric or nautical units.
time (UTC)temp
F
wind
direction
speed
MPH
gust
MPH
rain 1hr
in
rain 24hr
in
rain mn
in
humidity
%
barometer
mb
20200712062906 56 75 0.0 0.0 0.00 0.01 0.01 90 1016.0
20200712062405 56 75 0.0 0.0 0.00 0.01 0.01 90 1015.8
20200712061904 57 75 0.0 0.0 0.00 0.01 0.01 90 1015.8
20200712061404 57 75 0.0 0.0 0.00 0.01 0.01 90 1015.9
20200712060905 57 75 0.0 0.0 0.00 0.01 0.01 90 1015.9
20200712060404 57 75 0.0 0.0 0.00 0.01 0.01 90 1015.8
20200712055906 57 75 0.0 0.0 0.00 0.01 0.01 90 1015.8
20200712055405 57 75 0.0 0.0 0.00 0.01 0.01 90 1015.8
20200712054903 57 75 0.0 0.0 0.00 0.01 0.01 90 1015.8
20200712054407 57 75 0.0 1.0 0.00 0.01 0.01 90 1015.8
20200712053905 58 77 0.0 1.0 0.00 0.01 0.01 90 1015.7
20200712053405 58 77 1.0 5.0 0.00 0.01 0.01 90 1015.8
20200712052905 58 78 0.0 0.0 0.00 0.01 0.01 90 1015.7
20200712052405 58 72 0.0 0.0 0.00 0.01 0.01 90 1015.6
20200712051907 58 72 0.0 0.0 0.00 0.01 0.01 90 1015.6
20200712051405 58 96 0.0 0.0 0.00 0.01 0.01 89 1015.7
20200712050907 58 96 0.0 1.0 0.00 0.01 0.01 89 1015.7
20200712050405 58 96 0.0 0.0 0.00 0.01 0.01 89 1015.8
20200712045907 58 96 0.0 0.0 0.01 0.01 0.01 89 1015.7
20200712045406 58 96 0.0 0.0 0.01 0.01 0.01 89 1015.7
20200712044906 58 96 0.0 0.0 0.01 0.01 0.01 89 1015.6
20200712044406 58 96 0.0 0.0 0.01 0.01 0.01 89 1015.6
20200712043907 58 96 0.0 0.0 0.01 0.01 0.01 89 1015.6
20200712043404 58 96 0.0 0.0 0.01 0.01 0.01 89 1015.6
20200712042906 58 64 0.0 0.0 0.01 0.01 0.01 89 1015.6
20200712042405 58 64 0.0 1.0 0.01 0.01 0.01 89 1015.6
20200712041904 58 65 1.0 8.0 0.01 0.01 0.01 88 1015.6
20200712041405 59 62 0.0 1.0 0.01 0.01 0.01 88 1015.6
20200712040904 59 51 0.0 8.0 0.01 0.01 0.01 88 1015.6
20200712040404 59 68 0.0 0.0 0.01 0.01 0.01 87 1015.6
20200712035906 59 69 0.0 0.0 0.00 0.00 0.00 87 1015.5
20200712035405 59 75 1.0 5.0 0.00 0.00 0.00 87 1015.6
20200712034906 59 75 0.0 5.0 0.00 0.00 0.00 87 1015.6
20200712034405 59 62 2.0 10.0 0.00 0.00 0.00 87 1015.6
20200712033905 59 63 0.0 7.0 0.00 0.00 0.00 87 1015.6
20200712033405 60 63 0.0 0.0 0.00 0.00 0.00 86 1015.6
20200712032909 60 57 0.0 5.0 0.00 0.00 0.00 86 1015.6
20200712032404 60 92 1.0 7.0 0.00 0.00 0.00 86 1015.5
20200712031904 60 70 0.0 5.0 0.00 0.00 0.00 86 1015.5
20200712031406 60 60 0.0 5.0 0.00 0.00 0.00 86 1015.5
20200712030905 60 81 0.0 1.0 0.00 0.00 0.00 86 1015.5
20200712030405 60 110 0.0 8.0 0.00 0.00 0.00 86 1015.5
20200712025905 61 83 0.0 7.0 0.00 0.00 0.00 86 1015.5
20200712025405 61 61 0.0 5.0 0.00 0.00 0.00 85 1015.5
20200712024905 61 62 0.0 7.0 0.00 0.00 0.00 85 1015.5
20200712024405 61 66 0.0 5.0 0.00 0.00 0.00 85 1015.5
20200712023907 61 68 0.0 0.0 0.00 0.00 0.00 84 1015.5
20200712023405 61 68 0.0 5.0 0.00 0.00 0.00 84 1015.5
20200712022905 61 84 1.0 9.0 0.00 0.00 0.00 84 1015.5
20200712022404 61 106 0.0 5.0 0.00 0.00 0.00 85 1015.5
20200712021905 61 89 0.0 6.0 0.00 0.00 0.00 85 1015.6
20200712021404 61 56 0.0 5.0 0.00 0.00 0.00 84 1015.7
20200712020905 61 68 1.0 8.0 0.00 0.00 0.00 83 1015.6
20200712020405 61 69 0.0 6.0 0.00 0.00 0.00 83 1015.7
20200712015906 61 85 1.0 12.0 0.00 0.00 0.00 83 1015.7
20200712015405 62 67 1.0 7.0 0.00 0.00 0.00 82 1015.6
20200712014906 62 87 1.0 8.0 0.00 0.00 0.00 82 1015.7
20200712014404 62 81 1.0 6.0 0.00 0.00 0.00 82 1015.7
20200712013905 62 82 0.0 5.0 0.00 0.00 0.00 82 1015.7
20200712013406 62 63 0.0 6.0 0.00 0.00 0.00 82 1015.7
20200712012905 62 68 1.0 8.0 0.00 0.00 0.00 82 1015.6
20200712012404 62 47 1.0 6.0 0.00 0.00 0.00 81 1015.5
20200712011904 62 86 0.0 8.0 0.00 0.00 0.00 81 1015.6
20200712011403 62 76 1.0 7.0 0.00 0.00 0.00 82 1015.7
20200712010907 62 67 2.0 6.0 0.00 0.00 0.00 81 1015.7
20200712010404 62 68 0.0 8.0 0.00 0.00 0.00 82 1015.7
20200712005904 62 91 2.0 7.0 0.00 0.00 0.00 81 1015.8
20200712005405 62 61 0.0 6.0 0.00 0.00 0.00 81 1016.0
20200712004907 62 57 0.0 1.0 0.00 0.00 0.00 82 1015.9
20200712004405 62 64 1.0 10.0 0.00 0.00 0.00 83 1016.0
20200712003905 62 59 1.0 14.0 0.00 0.00 0.00 83 1016.0
20200712003405 62 67 0.0 5.0 0.00 0.00 0.00 82 1016.0
20200712002905 62 70 1.0 6.0 0.00 0.00 0.00 82 1016.0
20200712002404 63 75 0.0 3.0 0.00 0.00 0.00 81 1016.0
20200712001906 63 62 1.0 6.0 0.00 0.00 0.00 81 1016.0
20200712001404 63 60 1.0 10.0 0.00 0.00 0.00 80 1015.9
20200712000905 63 54 2.0 10.0 0.00 0.00 0.00 80 1015.8
20200712000404 63 62 1.0 9.0 0.00 0.00 0.00 80 1015.9
20200711235905 63 67 1.0 14.0 0.00 0.00 0.00 79 1015.9
20200711235405 63 67 1.0 5.0 0.00 0.00 0.00 79 1015.9
20200711234906 63 56 2.0 10.0 0.00 0.00 0.00 79 1015.8
20200711234405 64 63 2.0 12.0 0.00 0.00 0.00 78 1015.9
20200711233907 63 55 5.0 14.0 0.00 0.00 0.00 79 1015.8
20200711233405 63 75 1.0 8.0 0.00 0.00 0.00 79 1015.9
20200711232908 63 59 4.0 14.0 0.00 0.00 0.00 79 1015.8
20200711232405 63 50 5.0 14.0 0.00 0.00 0.00 79 1015.9
20200711231905 63 43 7.0 14.0 0.00 0.00 0.00 78 1015.9
20200711231405 63 53 6.0 13.0 0.00 0.00 0.00 78 1015.9
20200711230905 63 43 7.0 20.0 0.00 0.00 0.00 78 1015.9
20200711230404 63 44 8.0 14.0 0.00 0.00 0.00 79 1015.9
20200711225904 63 49 8.0 15.0 0.00 0.00 0.00 79 1015.9
20200711225405 63 42 5.0 13.0 0.00 0.00 0.00 79 1016.0
20200711224904 63 45 3.0 14.0 0.00 0.00 0.00 81 1015.9
20200711224405 62 40 6.0 13.0 0.00 0.00 0.00 81 1016.0
20200711223904 62 58 3.0 9.0 0.00 0.00 0.00 82 1016.0
20200711223404 62 67 0.0 1.0 0.00 0.00 0.00 82 1016.0
20200711222905 62 67 0.0 5.0 0.00 0.00 0.00 82 1016.1
20200711222404 61 64 1.0 10.0 0.00 0.00 0.00 83 1016.0
20200711221905 61 63 1.0 7.0 0.00 0.00 0.00 82 1016.0
20200711221405 62 74 1.0 8.0 0.00 0.00 0.00 83 1016.1
20200711220905 62 53 1.0 7.0 0.00 0.00 0.00 83 1016.2
20200711220406 62 61 0.0 6.0 0.00 0.00 0.00 85 1016.2
20200711215904 61 49 1.0 7.0 0.00 0.00 0.00 85 1016.2
20200711215407 61 72 0.0 1.0 0.00 0.00 0.00 84 1016.1
20200711214905 61 113 1.0 6.0 0.00 0.00 0.00 83 1016.1
20200711214404 61 49 0.0 1.0 0.00 0.00 0.00 85 1016.0
20200711213905 61 48 0.0 0.0 0.00 0.00 0.00 85 1016.1
20200711213405 60 46 0.0 5.0 0.00 0.00 0.00 84 1016.1
20200711212906 61 47 0.0 3.0 0.00 0.00 0.00 86 1016.1
20200711212404 61 48 0.0 1.0 0.00 0.00 0.00 86 1016.1
20200711211905 61 51 1.0 5.0 0.00 0.02 0.00 86 1016.2
20200711211404 61 54 2.0 7.0 0.00 0.02 0.00 86 1016.2
20200711210905 61 61 0.0 0.0 0.00 0.02 0.00 87 1016.3
20200711210404 61 61 0.0 0.0 0.00 0.02 0.00 87 1016.4
20200711205904 61 61 0.0 0.0 0.00 0.02 0.00 86 1016.3
20200711205407 61 61 0.0 0.0 0.00 0.02 0.00 86 1016.3
20200711204905 61 61 0.0 0.0 0.00 0.02 0.00 86 1016.2
20200711204405 61 61 0.0 0.0 0.00 0.02 0.00 85 1016.2
20200711203908 61 61 0.0 0.0 0.00 0.02 0.00 86 1016.2
20200711203404 61 61 0.0 0.0 0.00 0.02 0.00 87 1016.3
20200711202907 61 61 0.0 0.0 0.00 0.02 0.00 86 1016.1
20200711202405 60 63 0.0 1.0 0.00 0.02 0.00 86 1016.0
20200711201907 60 63 0.0 1.0 0.00 0.02 0.00 85 1016.0
20200711201406 60 63 0.0 0.0 0.00 0.02 0.00 86 1015.9
20200711200905 60 63 0.0 0.0 0.00 0.02 0.00 85 1015.9
20200711200407 60 63 0.0 0.0 0.00 0.02 0.00 85 1015.8
20200711195905 60 63 0.0 1.0 0.00 0.02 0.00 85 1015.8
20200711195407 60 63 0.0 0.0 0.00 0.02 0.00 86 1015.8
20200711194905 60 63 0.0 0.0 0.00 0.02 0.00 85 1015.8
20200711194406 60 63 0.0 0.0 0.00 0.02 0.00 85 1015.8
20200711193905 60 63 0.0 0.0 0.00 0.02 0.00 85 1015.8
20200711193406 60 63 0.0 0.0 0.00 0.02 0.00 85 1015.8
20200711192906 60 63 0.0 0.0 0.00 0.02 0.00 85 1015.7
20200711192404 60 63 0.0 0.0 0.00 0.02 0.00 84 1015.8
20200711191906 60 63 0.0 0.0 0.00 0.02 0.00 84 1015.8
20200711191408 60 63 0.0 0.0 0.00 0.02 0.00 84 1015.7
20200711190905 60 63 0.0 0.0 0.00 0.02 0.00 83 1015.8
20200711190406 60 63 0.0 0.0 0.00 0.02 0.00 83 1015.6
20200711185906 60 63 0.0 0.0 0.00 0.02 0.00 83 1015.7
20200711185404 60 63 0.0 0.0 0.00 0.02 0.00 84 1015.8
20200711184905 60 63 0.0 0.0 0.00 0.02 0.00 84 1015.8
20200711184404 60 63 0.0 0.0 0.00 0.02 0.00 84 1015.7
20200711183905 60 63 0.0 0.0 0.00 0.02 0.00 84 1015.9
20200711183405 60 63 0.0 0.0 0.00 0.02 0.00 85 1015.9
20200711063404 59 59 0.0 0.0 0.00 0.02 0.00 85 1017.4